Flag for Austria Weather past 2 weeks in Bruck an der Leitha, Lower Austria, Austria

Now
76 °F

Passing clouds.


Feels Like: 78 °F
Forecast: 67 / 94 °F
Wind: 7 mph from West

Location: Wien / Schwechat-Flughafen

Current Time: Aug 5, 2015 at 5:27:01 AM

Latest Report: Aug 5, 2015 at 5:00 AM


Visibility: 25 mi

Pressure: 29.99 "Hg

Humidity: 52%

Dew point: 58 °F

Location of Bruck an der LeithaLocation

Historic Weather in Bruck an der Leitha — Graph

°F

Bruck an der Leitha temperature yesterday

Maximum temperature yesterday: 88 °F (at 5:00 PM)
Minimum temperature yesterday: 64 °F (at 5:00 AM)
Average temperature yesterday: 77 °F

Past Weeks' High & Low Weather Summary

 TemperatureHumidityPressure
High97 °F (Jul 22, 6:00 PM)95% (Jul 29, 11:00 PM)30.14 "Hg (Jul 29, 11:00 PM)
Low56 °F (Aug 1, 4:00 AM)23% (Jul 26, 6:00 PM)29.70 "Hg (Jul 25, 4:00 PM)
Average72 °F61%29.92 "Hg
* Reported Jul 21 4:00 AM — Aug 5 4:00 AM, Bruck an der Leitha, Weather by CustomWeather, © 2015

Note: Actual official high and low records may vary slightly from our data, if they occured in-between our weather recording intervals... More about our weather records

Advertising

Bruck an der Leitha weather history for previous 24 hours

 ConditionsComfort  
Time TempWeatherWind HumidityBarometerVisibility
4:00 AM
Wed, Aug 5
77 °FPassing clouds.7 mph52%29.98 "Hg28 mi
3:00 AM75 °FPassing clouds.3 mph61%29.97 "Hg17 mi
2:00 AM73 °FPassing clouds.3 mph71%29.96 "Hg11 mi
1:00 AM72 °FPassing clouds.3 mph75%29.95 "Hg13 mi
12:00 AM73 °FPassing clouds.N/A75%29.94 "Hg6 mi
10:00 PM
Tue, Aug 4
75 °FPassing clouds.5 mph69%29.92 "Hg17 mi
9:00 PM78 °FPassing clouds.3 mph61%29.91 "Hg11 mi
8:00 PM84 °FPassing clouds.6 mph50%29.89 "Hg22 mi
7:00 PM86 °FPassing clouds.7 mph44%29.89 "Hg17 mi
6:00 PM87 °FPassing clouds.7 mph43%29.88 "Hg15 mi
5:00 PM88 °FPassing clouds.7 mph43%29.89 "Hg16 mi
4:00 PM88 °FPassing clouds.8 mph42%29.90 "Hg15 mi
3:00 PM87 °FPassing clouds.8 mph44%29.92 "Hg16 mi
2:00 PM85 °FPassing clouds.7 mph50%29.94 "Hg16 mi
1:00 PM85 °FPassing clouds.7 mph50%29.95 "Hg12 mi
12:00 PM83 °FPassing clouds.6 mph54%29.97 "Hg14 mi
11:00 AM81 °FSunny.5 mph60%29.98 "Hg14 mi
10:00 AM78 °FSunny.3 mph64%29.99 "Hg16 mi
9:00 AM74 °FSunny.5 mph72%30.00 "Hg10 mi
8:00 AM71 °FSunny.N/A79%30.02 "Hg7 mi
7:00 AM67 °FSunny.N/A92%30.02 "Hg3 mi
6:00 AM64 °FSunny.N/A95%30.02 "Hg3 mi
5:00 AM64 °FClear.N/A94%30.02 "Hg5 mi
Weather by CustomWeather, © 2015

See weather overviewHow to use our weather pages